Location: Kielce
(50.8833°N, 20.6167°E)
Time: 22:20:51
(UTC+02:00)

SR - Pass Details

Date: 26 April 2021
Orbit: 573 x 882 km, 66.7° (Epoch: 09 May)

Event Time Altitude Azimuth Distance (km) Brightness Sun altitude
Rises 10:27:35 0° 292° (WNW) 3,469 ? 44.7°
Reaches altitude 10° 10:31:00 10° 312° (NW) 2,546 ? 45.1°
Maximum altitude 10:34:53 18° 353° (N) 2,059 ? 45.5°
Drops below altitude 10° 10:38:44 10° 34° (NE) 2,531 ? 45.9°
Sets 10:42:07 0° 53° (NE) 3,439 ? 46.3°
